• In Spain
  • List of Countries
  • For 7 days
  • Water Temperature
  • Satellite Maps
  • Weather Map
  • Weather Widgets
  • user-avatar
    Login

    Hourly Weather Salta

    Today, 19 October, Friday

    Time Temperature Precipitation Wind Pressure Humidity
    00:00 +24°C° 0.4 mm 2 mps 652 mmHg 78%
    01:00 +23°C° 0.4 mm 2 mps 652 mmHg 79%
    02:00 +23°C° 0.4 mm 2 mps 652 mmHg 80%
    03:00 +23°C° 0.4 mm 2 mps 652 mmHg 81%
    04:00 +21°C° 0.4 mm 2 mps 652 mmHg 82%
    05:00 +21°C° 0.4 mm 2 mps 652 mmHg 83%
    06:00 +21°C° 0.3 mm 2 mps 653 mmHg 80%
    07:00 +23°C° 0.3 mm 2 mps 653 mmHg 77%
    08:00 +22°C° 0.3 mm 3 mps 654 mmHg 75%
    09:00 +22°C° 0.3 mm 3 mps 654 mmHg 75%
    10:00 +22°C° 0.3 mm 3 mps 654 mmHg 76%
    11:00 +22°C° 0.3 mm 3 mps 654 mmHg 76%
    12:00 +23°C° 0.2 mm 2 mps 653 mmHg 76%
    13:00 +23°C° 0.2 mm 2 mps 653 mmHg 75%
    14:00 +23°C° 0.2 mm 2 mps 652 mmHg 75%
    15:00 +21°C° 0.9 mm 2 mps 652 mmHg 77%
    16:00 +21°C° 0.9 mm 2 mps 652 mmHg 80%
    17:00 +20°C° 0.9 mm 2 mps 651 mmHg 82%
    18:00 +20°C° 0.2 mm 2 mps 652 mmHg 81%
    19:00 +21°C° 0.2 mm 1 mps 652 mmHg 81%
    20:00 +20°C° 0.2 mm 1 mps 652 mmHg 80%
    21:00 +20°C° 0 mm 1 mps 653 mmHg 79%
    22:00 +20°C° 0 mm 1 mps 653 mmHg 78%
    23:00 +19°C° 0 mm 1 mps 653 mmHg 77%

    Tomorrow, 20 October, Saturday

    Time Temperature Precipitation Wind Pressure Humidity
    00:00 +19°C° 0 mm 1 mps 653 mmHg 77%
    01:00 +19°C° 0 mm 1 mps 652 mmHg 77%
    02:00 +19°C° 0 mm 1 mps 652 mmHg 77%
    03:00 +19°C° 0 mm 1 mps 652 mmHg 78%
    04:00 +18°C° 0 mm 1 mps 652 mmHg 79%
    05:00 +18°C° 0 mm 1 mps 651 mmHg 80%
    06:00 +20°C° 0 mm 1 mps 652 mmHg 75%
    07:00 +21°C° 0 mm 1 mps 653 mmHg 70%
    08:00 +23°C° 0 mm 1 mps 653 mmHg 65%
    09:00 +24°C° 0 mm 2 mps 653 mmHg 61%
    10:00 +26°C° 0 mm 2 mps 653 mmHg 56%
    11:00 +27°C° 0 mm 3 mps 653 mmHg 51%
    12:00 +27°C° 0 mm 3 mps 652 mmHg 53%
    13:00 +27°C° 0 mm 3 mps 651 mmHg 54%
    14:00 +27°C° 0 mm 3 mps 650 mmHg 56%
    15:00 +27°C° 0.1 mm 2 mps 650 mmHg 58%
    16:00 +26°C° 0.1 mm 2 mps 649 mmHg 61%
    17:00 +26°C° 0.1 mm 2 mps 649 mmHg 63%
    18:00 +25°C° 0.1 mm 2 mps 649 mmHg 68%
    19:00 +24°C° 0.1 mm 1 mps 650 mmHg 74%
    20:00 +23°C° 0.1 mm 1 mps 650 mmHg 79%
    21:00 +22°C° 0.1 mm 1 mps 650 mmHg 81%
    22:00 +22°C° 0.1 mm 1 mps 651 mmHg 82%
    23:00 +22°C° 0.1 mm 1 mps 651 mmHg 83%

    Day after tomorrow, 21 October, Sunday

    Time Temperature Precipitation Wind Pressure Humidity
    00:00 +21°C° 0 mm 1 mps 651 mmHg 85%
    01:00 +19°C° 0 mm 0 mps 650 mmHg 86%
    02:00 +19°C° 0 mm 0 mps 650 mmHg 87%
    03:00 +19°C° 0 mm 0 mps 650 mmHg 88%
    04:00 +21°C° 0 mm 1 mps 650 mmHg 89%
    05:00 +21°C° 0 mm 1 mps 650 mmHg 89%
    06:00 +22°C° 0 mm 1 mps 651 mmHg 83%
    07:00 +23°C° 0 mm 1 mps 651 mmHg 77%
    08:00 +24°C° 0 mm 1 mps 652 mmHg 71%
    09:00 +25°C° 0 mm 1 mps 652 mmHg 66%
    10:00 +27°C° 0 mm 2 mps 652 mmHg 60%
    11:00 +28°C° 0 mm 2 mps 652 mmHg 54%
    12:00 +29°C° 0.1 mm 3 mps 651 mmHg 54%
    13:00 +29°C° 0.1 mm 3 mps 650 mmHg 53%
    14:00 +29°C° 0.1 mm 3 mps 650 mmHg 53%
    15:00 +28°C° 0.2 mm 3 mps 649 mmHg 57%
    16:00 +27°C° 0.2 mm 3 mps 649 mmHg 62%
    17:00 +27°C° 0.2 mm 3 mps 648 mmHg 66%
    18:00 +25°C° 0.4 mm 2 mps 648 mmHg 71%
    19:00 +24°C° 0.4 mm 2 mps 649 mmHg 77%
    20:00 +23°C° 0.4 mm 1 mps 649 mmHg 82%
    21:00 +23°C° 0.1 mm 1 mps 649 mmHg 83%
    22:00 +22°C° 0.1 mm 1 mps 649 mmHg 84%
    23:00 +22°C° 0.1 mm 1 mps 650 mmHg 85%

    22 October, Monday

    Time Temperature Precipitation Wind Pressure Humidity
    00:00 +22°C° 0 mm 1 mps 649 mmHg 86%
    01:00 +22°C° 0 mm 1 mps 649 mmHg 87%
    02:00 +21°C° 0 mm 1 mps 648 mmHg 88%
    03:00 +21°C° 0 mm 1 mps 648 mmHg 88%
    04:00 +21°C° 0 mm 1 mps 648 mmHg 89%
    05:00 +21°C° 0 mm 1 mps 648 mmHg 89%
    06:00 +22°C° 0 mm 1 mps 649 mmHg 85%
    07:00 +23°C° 0 mm 1 mps 649 mmHg 80%
    08:00 +24°C° 0 mm 1 mps 650 mmHg 75%
    09:00 +25°C° 0 mm 2 mps 650 mmHg 71%
    10:00 +26°C° 0 mm 2 mps 650 mmHg 66%
    11:00 +27°C° 0 mm 3 mps 650 mmHg 62%
    12:00 +27°C° 0.1 mm 3 mps 649 mmHg 62%
    13:00 +28°C° 0.1 mm 3 mps 648 mmHg 63%
    14:00 +28°C° 0.1 mm 2 mps 647 mmHg 63%
    15:00 +27°C° 0.3 mm 2 mps 647 mmHg 66%
    16:00 +27°C° 0.3 mm 2 mps 647 mmHg 68%
    17:00 +26°C° 0.3 mm 2 mps 647 mmHg 70%
    18:00 +25°C° 0.1 mm 2 mps 647 mmHg 74%
    19:00 +24°C° 0.1 mm 1 mps 648 mmHg 77%
    20:00 +24°C° 0.1 mm 1 mps 648 mmHg 81%
    21:00 +23°C° 0.8 mm 1 mps 649 mmHg 82%
    22:00 +23°C° 0.8 mm 1 mps 649 mmHg 83%
    23:00 +22°C° 0.8 mm 1 mps 649 mmHg 84%

    23 October, Tuesday

    Time Temperature Precipitation Wind Pressure Humidity
    00:00 +22°C° 0.1 mm 1 mps 649 mmHg 84%
    01:00 +21°C° 0.1 mm 2 mps 649 mmHg 84%
    02:00 +21°C° 0.1 mm 2 mps 649 mmHg 85%
    03:00 +21°C° 0.2 mm 2 mps 649 mmHg 86%
    04:00 +20°C° 0.2 mm 2 mps 649 mmHg 88%
    05:00 +20°C° 0.2 mm 2 mps 650 mmHg 89%
    06:00 +20°C° 0.6 mm 2 mps 650 mmHg 88%
    07:00 +20°C° 0.6 mm 2 mps 651 mmHg 86%
    08:00 +20°C° 0.6 mm 2 mps 651 mmHg 85%
    09:00 +21°C° 0.5 mm 2 mps 651 mmHg 83%
    10:00 +21°C° 0.5 mm 2 mps 651 mmHg 81%
    11:00 +21°C° 0.5 mm 3 mps 651 mmHg 79%
    12:00 +21°C° 0.4 mm 3 mps 651 mmHg 81%
    13:00 +20°C° 0.4 mm 3 mps 650 mmHg 82%
    14:00 +20°C° 0.4 mm 3 mps 650 mmHg 83%
    15:00 +20°C° 1 mm 2 mps 649 mmHg 84%
    16:00 +19°C° 1 mm 2 mps 649 mmHg 86%
    17:00 +19°C° 1 mm 2 mps 649 mmHg 87%
    18:00 +19°C° 0.5 mm 2 mps 650 mmHg 87%
    19:00 +19°C° 0.5 mm 1 mps 650 mmHg 87%
    20:00 +19°C° 0.5 mm 1 mps 651 mmHg 88%
    21:00 +19°C° 0.2 mm 1 mps 651 mmHg 88%
    22:00 +19°C° 0.2 mm 1 mps 652 mmHg 88%
    23:00 +19°C° 0.2 mm 1 mps 652 mmHg 89%

    24 October, Wednesday

    Time Temperature Precipitation Wind Pressure Humidity
    00:00 +19°C° 0.1 mm 1 mps 652 mmHg 89%
    01:00 +19°C° 0.1 mm 1 mps 651 mmHg 89%
    02:00 +19°C° 0.1 mm 1 mps 651 mmHg 89%
    03:00 +18°C° 0.1 mm 1 mps 651 mmHg 89%
    04:00 +18°C° 0.1 mm 1 mps 650 mmHg 90%
    05:00 +18°C° 0.1 mm 1 mps 650 mmHg 90%
    06:00 +19°C° 0 mm 1 mps 651 mmHg 86%
    07:00 +20°C° 0 mm 1 mps 652 mmHg 83%
    08:00 +19°C° 0 mm 2 mps 652 mmHg 79%
    09:00 +20°C° 0 mm 2 mps 652 mmHg 75%
    10:00 +21°C° 0 mm 2 mps 652 mmHg 71%
    11:00 +23°C° 0 mm 2 mps 651 mmHg 67%
    12:00 +24°C° 0.1 mm 2 mps 651 mmHg 66%
    13:00 +24°C° 0.1 mm 2 mps 650 mmHg 64%
    14:00 +25°C° 0.1 mm 2 mps 649 mmHg 63%
    15:00 +25°C° 0.1 mm 2 mps 649 mmHg 65%
    16:00 +24°C° 0.1 mm 2 mps 648 mmHg 67%
    17:00 +24°C° 0.1 mm 2 mps 648 mmHg 69%
    18:00 +23°C° 0.1 mm 2 mps 648 mmHg 74%
    19:00 +22°C° 0.1 mm 1 mps 649 mmHg 78%
    20:00 +21°C° 0.1 mm 1 mps 649 mmHg 83%
    21:00 +21°C° 0 mm 1 mps 649 mmHg 84%
    22:00 +20°C° 0 mm 1 mps 650 mmHg 84%
    23:00 +20°C° 0 mm 1 mps 650 mmHg 85%
    Show more